Погода Троицко-Печерск

Погода Троицко-Печерск : погода сейчас, прогноз погоды и архив. Всё, что Вы хотите узнать о погоде Троицко-Печерск!

Хотите узнать прогноз погоды Троицко-Печерск? Тогда Вам сюда: Погода Троицко-Печерск

Поиск расширенной информации на нашем сайте:

Полезная информация:

Другие новости

Новости СМИ2

Главная страница сайта

Новости сайта

03.07.2017

Напоминаем, что на нашем специализированном сайте Метеоцентр.Азия вы можете получить высокодетализированные автоматические прогнозы погоды по пунктам России, СНГ и мира в авиационном формате (включающие направление и скорость ветра, видимость, явления погоды, количество и форму облачности, нижнюю и верхнюю границу облачности).

Рекомендуем:

Погода Троицко-Печерск - сегодня

Время (UTC), дата Ветер
(°,м/с) 
Видим.   Явления Облачность Т
(°С)
Тd
(°С)
f(%) Тe
(°С)
Pmin
(гПа)
dP
(гПа)
Po
(мм)
O2
(г/м3)
Тmin Tmax R s Состояние
почвы
00 22.05.19 310 (СЗ) 20000 м    6/0 средняя, верхняя 
[Ac As|Ci fib]
-0.6 -5.8 68 -1  1014  -0.2  748  303           
03 22.05.19 070 (В) 20000 м    1/0 верхняя 
[Ci fib]
+5.7 -5.1 46 +5  1013.3  -0.3  747  296  -1        сухая 
06 22.05.19 310 (СЗ) 20000 м    3/3 600 м 
[Cu hum]
+9.3 -6.7 32 +9  1012.1  -1  747  292           
09 22.05.19 010 (С) 20000 м    6/5 600 м верхняя 
[Cu med, cong|Ci fib]
+10.4 -5.5 32 +11  1010.8  -1.3  746  290           
12 22.05.19 100 (В) 20000 м    10/8 750 м кучево-дожд., верхняя 
[Cb cap|Ci fib]
+11.1 -4.3 34 +12  1009.4  -1.3  745  289           
15 22.05.19 060 (СВ) 20000 м    9/5 600 м кучево-дожд., средняя 
[Cb cap|Ac trans]
+10.6 -3.3 37 +12  1008.1  -1.4  744  289    +11.9       
18 22.05.19 280 (З) 20000 м    10/5 600 м кучево-дожд., средняя 
[Cb cap|Ac und]
+7.9 -0.6 55 +9  1006.7  -1.5  743  291           
21 22.05.19 100 (В) 20000 м    10/5 630 м кучево-дожд., средняя 
[Cb cap|Ac und]
+5.6 -0.5 65 +6  1003.5  -3.3  740  292           
00 23.05.19 030 (СВ) 10 км  слаб. ливневой дождь  10/10 330 м кучево-дожд. 
[Cb cap]
+4.5 +1.8 83 +5  1000.9  -2.6  738  292           
03 23.05.19 330 (СЗ) 20000 м  {ливн. осадки}  9/9 700 м кучево-дожд. 
[Cb cap]
+6.8 +1.3 68 +8  999.2  -1.5  737  290  +4.3    0.0    влажная 
06 23.05.19 320 (СЗ) 10 км  слаб. ливневой дождь  10/10 360 м кучево-дожд. 
[Cb cap]
+5.4 +2.9 84 +4  999.2  -0.1  737  291           
09 23.05.19 320 (СЗ) 4000 м  слаб. ливневой снег  10/10 300 м кучево-дожд. 
[Cb cap]
+1.6 +0.1 90 1000.6  1.1  738  296           
12 23.05.19 310 (СЗ) 4-10{10}  20000 м  {ливн. осадки}  8/5 300 м кучево-дожд., верхняя 
[Cb cap|Ci fib]
+6.4 -1.8 56 +5  999.9  -0.4  738  291           
15 23.05.19 330 (СЗ) 2{11}  20000 м  в посл. час ливневой снег  8/5 300 м кучево-дожд., средняя 
[Cb cap|Ac trans]
+2.2 -0.8 81 +2  1001.8  1.7  739  295    +8.5     
18 23.05.19 290 (З) 20000 м  {ливн. осадки}  3/1 600 м кучево-дожд., средняя 
[Cb cap|Ac trans]
-0.9 -4.1 79 -2  1002.5  0.5  739  299           
21 23.05.19 310 (СЗ) 20000 м    1/0 верхняя 
[Ci fib]
-0.7 -3.4 82 -2  1002.5  0.5  739  299           
00 24.05.19 330 (СЗ) 20000 м    9/8 570 м средняя 
[Sc|Ac trans]
-0.5 -3.3 81 -1  1002.9  0.4  740  299           
03 24.05.19 320 (СЗ) 20000 м    8/4 600 м кучево-дожд., средняя 
[Cb cap|Ac trans]
+1 -5.9 60 -1  1003.7  0.8  740  298  -1.3      влажная 
06 24.05.19 330 (СЗ) 4{10}  20000 м    9/8 600 м кучево-дожд., средняя 
[Cb cap|Ac As]
+3.3 -8.4 42 +1  1004.4  0.8  741  296           
09 24.05.19 310 (СЗ) 4{10}  20000 м  в посл. час ливневой снег  8/8 500 м кучево-дожд. 
[Cb cap]
+3.9 -2.9 61 +2  1005.6  1.2  742  295           
12 24.05.19 340 (С) 4-10{12}  20000 м  {ливн. осадки}  9/9 570 м кучево-дожд. 
[Cb cap]
+3.2 -7.5 45 +1  1007.1  1.5  743  297           
15 24.05.19 300 (СЗ) 3{11}  20000 м  в посл. час ливневой снег  5/4 600 м кучево-дожд., верхняя 
[Cb cap|Ci fib]
+1.5 -3.6 69 1008.5  1.3  744  298    +5  0.8     
18 24.05.19 300 (СЗ) 20000 м  {ливн. осадки}  9/5 600 м кучево-дожд., средняя 
[Cb cap|Ac As]
+0.8 -5.8 61 1009.5  0.9  744  300           
21 24.05.19 280 (З) 2{10}  20000 м    10/6 630 м кучево-дожд., средняя 
[Cb cap|Ac und]
-0.7 -5.9 68 -2  1010.7  745  302           
00 25.05.19 300 (СЗ) 20000 м    9/5 600 м кучево-дожд., средняя 
[Cb cap|Ac As]
-0.6 -5.5 69 -1  1011.5  0.8  746  302           
Время (UTC), дата Ветер
(°,м/с) 
Видим.   Явления Облачность Т
(°С)
Тd
(°С)
f(%) Тe
(°С)
Pmin
(гПа)
dP
(гПа)
Po
(мм)
O2
(г/м3)
Тmin Tmax R s Состояние
почвы

Для получения пояснительной информации подведите курсор к названию столбца.

ПОГОДА Троицко-Печерск - архив

Всё, что Вы хотите узнать о погоде Троицко-Печерск - удобно и подробно!

Выберите нужную дату (начиная с 1 января 2018* года) и нажмите кнопку "Найти".
Будут отображены архивные сводки погоды по пункту Троицко-Печерск, начиная с указанной даты.


Отображать данные в формате CSV (для использования в таблицах Excel)


Внимание! Наш архив погоды предназначен исключительно для личного некоммерческого использования в познавательных целях. Если Вам необходимы официальные справки о состоянии погоды (для производственных, юридических, коммерческих и т.п. целей), обращайтесь в органы Росгидромета.

*Примечание: данная дата относится к архиву по метеостанциям СССР (Россия, СНГ, Балтия).
Архив по метеостанциям Зарубежной Европы и Азии (кроме Китая) хранится 10 дней, по другим регионам земного шара (Китай, Африка, Америка, Австралия, Океания) - 1 день.

Троицко-Печерск - район местоположения метеостанции


Название, широта, долгота, высота метеостанции:
Троицко-Печерск 62.7°ш. 56.2°д. 139 м над ур. моря [Российская Федерация]

Дополнительная информация

В oтличие oт бoльшинства пoгoдных сайтoв мы публикуем пoдрoбную метеoинфoрмацию в детальнoм прoфессиoнальнoм фoрмате.

Характеристики температуры и влажнoсти вoздуха измеряются на высoте 2 м в тени вдали oт зданий и деревьев.
Скoрoсть ветра измеряется на высoте 10 м (на урoвне рoста челoвека скoрoсть ветра ниже в 1.5-2 раза). Если метеoстанция нахoдится в гoрoде или в лесу, тo скoрoсть ветра занижена на 2-4 м/с пo сравнению с oткрытым местoм. Скoрoсть ветра над акватoриями крупных рек и oзёр, а также на вершинах хoлмoв на 2-5 м/с выше, чем в oбычных услoвиях.
Атмoсфернoе давление в разных тoчках местнoсти мoжет значительнo oтличаться oт давления на метеoстанции, в зависимoсти oт услoвий рельефа (при пoдъёме на 10 м давление пoнижается примернo на 1 мм рт.ст.).